{"data":{"norad_id":67113,"epoch":"2026-05-24T23:48:30.928896Z","epoch_age_seconds":69472,"freshness":"FRESH","line1":"1 67113U 25299M   26144.99202464  .00027831  00000+0  10174-2 0  9993","line2":"2 67113  43.0045  98.2531 0002089 247.7371 112.3259 15.27568529 24788","mean_motion":15.27568529,"eccentricity":0.0002089,"inclination_deg":43.0045,"raan_deg":98.2531,"arg_perigee_deg":247.7371,"mean_anomaly_deg":112.3259,"bstar":0.0010174,"rev_number":2478,"period_min":94.267456592777,"perigee_km":481.6501356044,"apogee_km":484.51675350614,"semimajor_km":6861.2204445553,"source":"CELESTRAK","updated_at":"2026-05-25T13:38:21.475061Z"}}